Orbital Elements at Epoch 2459200.5 (2020-Dec-17.0) TDB
Reference: JPL 15 (heliocentric ecliptic J2000)
Element | Value | Uncertainty (1-sigma) | Units |
e | .1924231257548533 | 4.6231e-08 | |
a | 2.405050049444782 | 1.1236e-08 | au |
q | 1.942262801333752 | 1.1028e-07 | au |
i | 10.67081273799611 | 6.9134e-06 | deg |
node | 43.24877802973881 | 2.2202e-05 | deg |
peri | 295.4348744211017 | 2.7939e-05 | deg |
M | 68.73176775632648 | 1.7745e-05 | deg |
tp | 2458940.400439797025 (2020-Mar-31.90043980) | 6.6618e-05 | TDB |
period | 1362.337165618038 3.73 | 9.5473e-06 2.614e-08 | d yr |
n | .2642517646038691 | 1.8519e-09 | deg/d |
Q | 2.867837297555811 | 1.3399e-08 | au |
|
| | Orbit Determination Parameters
Additional Information
|